Stations météo

réclame
Mon MeteoGroup
Leucate/Semaphore, France (7666): Température de l'air & dewpoint: 14.11.2017 12:00:00 - 20.11.2017 12:00:00 (CET)Leucate/Semaphore, France (7666): Vitesse du vent & gusts: 14.11.2017 12:00:00 - 20.11.2017 12:00:00 (CET)Leucate/Semaphore, France (7666): Direction du vent: 14.11.2017 12:00:00 - 20.11.2017 12:00:00 (CET)Leucate/Semaphore, France (7666): reduced air pressure: 14.11.2017 12:00:00 - 20.11.2017 12:00:00 (CET)Leucate/Semaphore, France (7666): visibility: 14.11.2017 12:00:00 - 20.11.2017 12:00:00 (CET)Leucate/Semaphore, France (7666): Quantités de précipitations: 14.11.2017 12:00:00 - 20.11.2017 12:00:00 (CET)
Date & Time tt [°C] td [°C] ff [km/h] ff [knt] fx [km/h] fx [knt] dd ppp [hPa] vv [km] rr [mm]
20.11.2017 12:00:00 18,6 5,4 22 12 40 22 NW 1022,2 - 0,0
20.11.2017 11:00:00 17,3 5,2 17 9 37 20 NW 1022,5 - 0,0
20.11.2017 10:00:00 15,7 5,3 12 6 27 15 NW 1022,4 30 0,0
20.11.2017 09:00:00 13,8 4,6 18 10 38 20 WNW 1022,2 - 0,0
20.11.2017 08:00:00 11,5 4,2 23 13 42 23 WNW 1022,1 - 0,0
20.11.2017 07:00:00 11,7 4,7 24 13 40 22 NW 1021,7 30 0,0
20.11.2017 06:00:00 11,2 4,6 22 12 36 19 WNW 1021,9 - 0,0
20.11.2017 05:00:00 10,5 4,4 18 10 32 17 NW 1022,0 - 0,0
20.11.2017 04:00:00 10,6 4,5 24 13 48 26 NW 1022,2 - 0,0
20.11.2017 03:00:00 11,0 3,8 26 14 50 27 NW 1022,2 - 0,0
20.11.2017 02:00:00 10,7 2,8 26 14 48 26 WNW 1022,5 - 0,0
20.11.2017 01:00:00 10,6 1,7 26 14 48 26 NW 1022,9 - 0,0
20.11.2017 00:00:00 11,2 0,3 25 13 53 28 NW 1022,9 - 0,0
19.11.2017 23:00:00 11,7 -1,8 35 19 61 33 WNW 1022,7 - 0,0
19.11.2017 22:00:00 10,9 -0,9 29 15 52 28 NW 1022,7 - 0,0
19.11.2017 21:00:00 10,7 1,5 20 11 40 21 NW 1022,8 - 0,0
19.11.2017 20:00:00 10,7 1,8 24 13 48 26 NW 1022,4 - 0,0
19.11.2017 19:00:00 11,2 2,2 31 17 54 29 NW 1021,9 25 0,0
19.11.2017 18:00:00 12,1 2,8 34 18 70 38 NW 1020,9 - 0,0
19.11.2017 17:00:00 13,3 3,6 35 19 74 40 NW 1019,9 - 0,0
19.11.2017 16:00:00 15,1 3,6 32 17 65 35 NW 1019,8 - 0,0
19.11.2017 15:00:00 15,8 3,2 30 16 58 32 NW 1019,9 - 0,0
19.11.2017 14:00:00 15,5 2,6 31 17 64 35 NW 1020,7 - 0,0
19.11.2017 13:00:00 15,1 2,3 31 17 63 34 NW 1021,1 25 0,0
19.11.2017 12:00:00 14,1 3,5 26 14 56 31 NW 1021,9 - 0,0
19.11.2017 11:00:00 13,6 3,4 29 15 56 30 NW 1021,8 - 0,0
19.11.2017 10:00:00 12,7 2,8 29 16 63 34 NW 1020,8 - 0,0
19.11.2017 09:00:00 11,1 2,4 36 19 72 39 NW 1021,2 - 0,0
19.11.2017 08:00:00 10,3 2,1 38 21 70 38 NW 1020,1 - 0,0
19.11.2017 07:00:00 10,1 2,0 25 13 62 34 NW 1020,0 25 0,0
19.11.2017 06:00:00 9,8 2,6 32 17 63 34 NW 1019,8 - 0,0
19.11.2017 05:00:00 9,8 2,9 31 17 63 34 NW 1019,5 - 0,0
19.11.2017 04:00:00 9,9 3,6 31 17 62 34 NW 1019,5 20 0,0
19.11.2017 03:00:00 9,7 3,2 23 12 52 28 NW 1019,5 - 0,0
19.11.2017 02:00:00 9,4 2,7 22 12 53 28 NW 1019,9 - 0,0
19.11.2017 01:00:00 9,7 2,5 23 13 51 28 NW 1020,6 - 0,0
19.11.2017 00:00:00 9,6 2,7 29 16 59 32 NW 1020,5 - 0,0
18.11.2017 23:00:00 10,0 2,3 27 14 57 31 NW 1021,0 - 0,0
18.11.2017 22:00:00 10,8 1,3 32 17 69 37 NW 1021,0 - 0,0
18.11.2017 21:00:00 11,3 0,4 31 17 57 31 NW 1020,7 - 0,0
18.11.2017 20:00:00 11,0 0,7 24 13 55 30 NW 1020,9 - 0,0
18.11.2017 19:00:00 11,5 1,7 25 14 58 32 NW 1020,8 20 0,0
18.11.2017 18:00:00 12,5 1,5 27 15 57 31 NW 1019,7 - 0,0
18.11.2017 17:00:00 13,4 2,0 24 13 59 32 NW 1019,6 - 0,0
18.11.2017 16:00:00 14,9 2,4 30 16 61 33 NW 1019,0 - 0,0
18.11.2017 15:00:00 15,6 3,7 28 15 60 33 NW 1019,3 - 0,0
18.11.2017 14:00:00 15,6 4,0 35 19 64 35 NW 1019,5 - 0,0
18.11.2017 13:00:00 15,6 4,3 33 18 65 35 NW 1019,7 20 0,0
18.11.2017 12:00:00 15,1 4,7 29 15 59 32 NW 1020,8 - 0,0
18.11.2017 11:00:00 14,5 5,6 26 14 59 32 NW 1020,8 - 0,0
18.11.2017 10:00:00 13,0 5,2 30 16 53 28 NW 1020,5 20 0,0
18.11.2017 09:00:00 11,6 5,2 29 16 64 35 NW 1020,6 - 0,0
18.11.2017 08:00:00 10,9 5,0 34 19 64 35 NW 1019,9 - 0,0
18.11.2017 07:00:00 10,7 5,0 29 15 53 29 NW 1019,6 20 0,0
18.11.2017 06:00:00 10,8 4,7 27 15 51 27 NW 1019,2 - 0,0
18.11.2017 05:00:00 10,9 4,4 21 11 56 30 NW 1019,8 - 0,0
18.11.2017 04:00:00 11,4 4,4 26 14 47 26 NW 1019,7 20 0,0
18.11.2017 03:00:00 11,7 4,2 26 14 57 31 NW 1020,0 - 0,0
18.11.2017 02:00:00 12,3 4,8 32 17 56 30 NW 1019,7 - 0,0
18.11.2017 01:00:00 12,3 4,8 29 16 65 35 NW 1019,8 - 0,0
18.11.2017 00:00:00 12,9 4,6 32 18 61 33 NW 1019,4 - 0,0
17.11.2017 23:00:00 13,3 3,9 30 16 61 33 NW 1019,3 - 0,0
17.11.2017 22:00:00 13,3 3,4 26 14 62 33 NW 1019,6 - 0,0
17.11.2017 21:00:00 13,6 3,9 29 16 60 33 NW 1019,1 - 0,0
17.11.2017 20:00:00 14,4 2,3 32 17 57 31 NW 1018,7 - 0,0
17.11.2017 19:00:00 15,1 2,6 27 15 58 32 NW 1018,3 20 0,0
17.11.2017 18:00:00 16,2 1,5 31 17 59 32 NW 1017,6 - 0,0
17.11.2017 17:00:00 17,4 0,1 30 16 55 30 NW 1017,2 - 0,0
17.11.2017 16:00:00 19,1 -0,4 26 14 55 30 NW 1017,5 20 0,0
17.11.2017 15:00:00 20,1 -0,6 29 16 69 38 NW 1017,3 - 0,0
17.11.2017 14:00:00 19,8 -0,3 32 17 67 36 NW 1017,4 - 0,0
17.11.2017 13:00:00 20,1 0,0 33 18 60 33 NW 1017,7 - 0,0
17.11.2017 12:00:00 18,5 -0,4 30 16 65 35 NW 1018,2 - 0,0
17.11.2017 11:00:00 17,2 -0,1 24 13 55 30 NW 1019,1 - 0,0
17.11.2017 10:00:00 16,5 0,2 24 13 44 24 NW 1019,4 18 0,0
17.11.2017 09:00:00 14,1 -0,4 25 14 48 26 NW 1019,6 - 0,0
17.11.2017 08:00:00 12,7 -0,6 29 16 59 32 NW 1019,1 - 0,0
17.11.2017 07:00:00 12,7 0,4 32 17 62 33 NW 1018,5 18 0,0
17.11.2017 06:00:00 12,8 0,2 23 12 48 26 NW 1018,4 - 0,0
17.11.2017 05:00:00 13,1 -0,9 22 12 45 24 NW 1018,6 - 0,0
17.11.2017 04:00:00 12,6 -0,3 26 14 43 23 NW 1018,7 18 0,0
17.11.2017 03:00:00 12,4 0,2 18 10 35 19 NW 1018,8 - 0,0
17.11.2017 02:00:00 13,0 -0,7 24 13 44 24 NW 1019,1 - 0,0
17.11.2017 01:00:00 12,0 -0,5 23 13 42 23 NW 1019,7 - 0,0
17.11.2017 00:00:00 10,9 0,3 21 11 45 24 NW 1020,0 - 0,0
16.11.2017 23:00:00 11,0 2,6 23 12 42 23 NW 1020,0 - 0,0
16.11.2017 22:00:00 11,4 0,5 20 11 39 21 NW 1020,3 - 0,0
16.11.2017 21:00:00 11,3 -0,8 21 11 42 23 NW 1020,3 - 0,0
16.11.2017 20:00:00 11,5 -1,0 20 11 39 21 NW 1020,1 - 0,0
16.11.2017 19:00:00 10,9 1,7 16 8 29 16 NW 1020,3 - 0,0
16.11.2017 18:00:00 9,3 3,7 8 5 11 6 W 1019,8 - 0,0
16.11.2017 17:00:00 11,3 4,0 6 3 10 5 ESE 1019,7 - 0,0
16.11.2017 16:00:00 11,9 4,4 5 3 9 5 SE 1019,4 - 0,0
16.11.2017 15:00:00 12,1 4,3 8 4 15 8 SE 1019,5 - 0,0
16.11.2017 14:00:00 12,2 4,4 9 5 13 7 SE 1020,0 - 0,0
16.11.2017 13:00:00 12,3 3,8 5 3 16 9 E 1020,7 - 0,0
16.11.2017 12:00:00 11,0 4,0 5 3 15 8 NNE 1021,4 - 0,0
16.11.2017 11:00:00 10,5 3,5 9 5 16 8 N 1021,9 - 0,0
16.11.2017 10:00:00 10,8 2,6 3 2 18 10 SSE 1021,4 - 0,0
16.11.2017 09:00:00 7,3 1,4 4 2 10 6 WNW 1021,2 - 0,0
16.11.2017 08:00:00 5,4 0,8 9 5 16 9 NNW 1020,6 - 0,0
16.11.2017 07:00:00 5,3 0,5 13 7 16 9 NW 1020,2 - 0,0
16.11.2017 06:00:00 5,2 0,6 8 4 12 7 NNW 1020,1 - 0,0
16.11.2017 05:00:00 5,8 -1,4 9 5 12 7 NNW 1020,1 - 0,0
16.11.2017 04:00:00 5,4 -0,9 6 3 9 5 WNW 1020,0 - 0,0
16.11.2017 03:00:00 7,1 1,0 2 1 12 6 N 1020,1 - 0,0
16.11.2017 02:00:00 6,5 1,0 10 6 13 7 NW 1020,1 - 0,0
16.11.2017 01:00:00 7,6 -1,9 4 2 9 5 WNW 1020,0 - 0,0
16.11.2017 00:00:00 8,5 0,5 8 4 18 10 NW 1020,1 - 0,0
15.11.2017 23:00:00 10,5 1,8 11 6 21 11 N 1020,2 - 0,0
15.11.2017 22:00:00 10,8 -0,1 9 5 29 15 N 1020,3 - 0,0
15.11.2017 21:00:00 11,7 0,7 16 8 36 20 N 1019,8 - 0,0
15.11.2017 20:00:00 11,3 -5,7 15 8 27 15 NW 1019,0 - 0,0
15.11.2017 19:00:00 11,9 -5,6 16 9 31 17 NW 1018,4 - 0,0
15.11.2017 18:00:00 12,9 -4,3 16 9 26 14 NW 1017,7 - 0,0
15.11.2017 17:00:00 14,4 -2,5 13 7 45 24 NW 1017,5 - 0,0
15.11.2017 16:00:00 15,6 -3,4 28 15 44 24 NW 1016,9 30 0,0
15.11.2017 15:00:00 17,0 -5,5 24 13 40 22 NW 1017,2 - 0,0
15.11.2017 14:00:00 17,3 -3,5 23 12 45 25 NW 1017,1 - 0,0
15.11.2017 13:00:00 16,6 -4,1 24 13 50 27 NW 1017,7 35 0,0
15.11.2017 12:00:00 15,4 -3,5 28 15 55 30 NW 1018,5 - 0,0
15.11.2017 11:00:00 14,2 -3,2 29 16 52 28 NW 1018,5 - 0,0
15.11.2017 10:00:00 12,7 -2,8 26 14 46 25 NW 1018,9 30 0,0
15.11.2017 09:00:00 10,8 -2,6 25 14 45 24 NNW 1019,0 - 0,0
15.11.2017 08:00:00 9,7 -3,6 27 15 48 26 NW 1018,9 - 0,0
15.11.2017 07:00:00 9,1 -2,8 23 13 47 25 NW 1018,9 25 0,0
15.11.2017 06:00:00 8,9 -1,5 23 12 46 25 NW 1018,8 - 0,0
15.11.2017 05:00:00 8,5 -0,3 27 15 59 32 NW 1018,7 - 0,0
15.11.2017 04:00:00 8,3 0,5 29 16 67 36 NW 1019,0 12 0,0
15.11.2017 03:00:00 8,7 0,2 35 19 74 40 NW 1018,7 - 0,0
15.11.2017 02:00:00 8,3 1,0 33 18 65 35 NW 1019,2 - 0,0
15.11.2017 01:00:00 8,3 1,0 28 15 70 38 NW 1019,8 - 0,0
15.11.2017 00:00:00 8,5 1,2 34 18 68 37 NW 1020,6 - 0,0
14.11.2017 23:00:00 8,3 1,2 29 16 53 29 NW 1021,4 - 0,0
14.11.2017 22:00:00 8,3 1,2 29 16 61 33 NW 1021,3 - 0,0
14.11.2017 21:00:00 8,9 0,6 31 17 61 33 NW 1021,3 - 0,0
14.11.2017 20:00:00 9,3 -0,1 34 18 69 37 NW 1021,1 - 0,0
14.11.2017 19:00:00 9,4 -0,2 34 18 74 40 NW 1020,8 25 0,0
14.11.2017 18:00:00 9,4 0,0 32 18 68 37 NW 1020,4 - 0,0
14.11.2017 17:00:00 10,1 -0,1 36 19 84 45 NW 1020,0 - 0,0
14.11.2017 16:00:00 10,9 0,0 39 21 80 43 NW 1019,7 - 0,0
14.11.2017 15:00:00 11,2 0,6 36 20 80 43 NW 1019,7 - 0,0
14.11.2017 14:00:00 11,2 0,3 41 22 90 48 NW 1020,2 - 0,0
14.11.2017 13:00:00 11,0 -0,2 41 22 90 48 NW 1020,0 22 0,0
14.11.2017 12:00:00 10,4 -0,2 49 26 92 50 NW 1019,9 - 0,0

tt = Température de l'air
td = dewpoint
ff = Vitesse du vent
fx = gusts
dd = Direction du vent
ppp = reduced air pressure
vv = visibility
rr = Quantités de précipitations

stations d'obs. à proximité